{"data":{"norad_id":68053,"intl_designator":"2026-041P","name":"STARLINK-36919","alt_names":[],"object_type":"PAYLOAD","status":"ACTIVE","operator":null,"country":"US","launch_date":"2026-03-02","launch_site_code":"AFETR","launch_vehicle":null,"mission":null,"orbit_class":"UNKNOWN","rcs_meters":null,"size_class":null,"mass_kg":null,"dimensions":null,"purposes":["comms"],"wikipedia_slug":null,"has_3d_model":false,"image_url":null,"decayed_at":null,"tle_current":{"epoch":"2026-05-25T03:23:52.016928Z","epoch_age_seconds":65931,"freshness":"FRESH","line1":"1 68053U 26041P   26145.14157427  .00017702  00000+0  60812-3 0  9990","line2":"2 68053  53.1603  54.7408 0001075  73.3563 286.7556 15.30212378 13094","mean_motion":15.30212378,"eccentricity":0.0001075,"inclination_deg":53.1603,"raan_deg":54.7408,"arg_perigee_deg":73.3563,"mean_anomaly_deg":286.7556,"bstar":0.00060812,"rev_number":1309,"period_min":94.10458448141,"perigee_km":474.44137981715,"apogee_km":475.91484256606,"semimajor_km":6853.3151111916,"source":"CELESTRAK","updated_at":"2026-05-25T13:38:21.813048Z"}}}